GW5841 Weather Reports


Display with metric or nautical units.
time (UTC)temp
F
wind
direction
speed
MPH
gust
MPH
rain 1hr
in
rain 24hr
in
rain mn
in
humidity
%
barometer
mb
20260507120218 42 100 2.0 2.0 0.00 0.00 0.00 99 1002.6
20260507115713 42 93 2.0 3.0 0.00 0.00 0.00 99 1002.3
20260507115209 41 74 3.0 6.0 0.00 0.00 0.00 99 1002.3
20260507114705 41 75 3.0 6.0 0.00 0.00 0.00 99 1002.2
20260507114203 41 56 5.0 5.0 0.00 0.00 0.00 99 1002.1
20260507113700 41 83 4.0 4.0 0.00 0.00 0.00 99 1002.4
20260507113157 41 60 2.0 4.0 0.00 0.00 0.00 99 1002.4
20260507112654 40 48 5.0 8.0 0.00 0.00 0.00 99 1002.4
20260507112151 40 56 3.0 7.0 0.00 0.00 0.00 99 1002.4
20260507111648 40 53 4.0 6.0 0.00 0.00 0.00 99 1002.4
20260507111145 40 82 5.0 6.0 0.00 0.00 0.00 99 1002.3
20260507110641 40 58 3.0 4.0 0.00 0.00 0.00 99 1002.4
20260507110138 39 53 4.0 5.0 0.00 0.00 0.00 99 1002.4
20260507105635 39 72 4.0 6.0 0.00 0.00 0.00 99 1002.2
20260507105131 40 71 7.0 9.0 0.00 0.00 0.00 99 1002.2
20260507104628 39 62 3.0 7.0 0.00 0.00 0.00 99 1002.3
20260507104125 39 67 6.0 6.0 0.00 0.00 0.00 99 1002.3
20260507103621 39 108 1.0 3.0 0.00 0.00 0.00 99 1002.3
20260507103118 39 59 3.0 3.0 0.00 0.00 0.00 99 1002.3
20260507102614 39 62 7.0 8.0 0.00 0.00 0.00 99 1002.3
20260507102110 39 85 3.0 3.0 0.00 0.00 0.00 99 1002.3
20260507101606 39 83 4.0 6.0 0.00 0.00 0.00 99 1002.2
20260507101102 39 68 4.0 5.0 0.00 0.00 0.00 99 1002.1
20260507100559 39 69 6.0 10.0 0.00 0.00 0.00 99 1002.1
20260507100058 39 72 7.0 9.0 0.00 0.00 0.00 99 1002.1
20260507095555 39 77 8.0 8.0 0.00 0.00 0.00 99 1002.0
20260507095052 39 29 2.0 4.0 0.00 0.00 0.00 98 1002.2
20260507094548 39 72 5.0 6.0 0.00 0.00 0.00 98 1002.1
20260507094045 39 83 2.0 4.0 0.00 0.00 0.00 98 1002.3
20260507093543 39 103 2.0 3.0 0.00 0.00 0.00 98 1002.2
20260507093041 39 79 4.0 9.0 0.00 0.00 0.00 98 1002.1
20260507092537 39 61 6.0 9.0 0.00 0.00 0.00 98 1002.0
20260507092034 39 74 7.0 7.0 0.00 0.00 0.00 98 1002.2
20260507091531 39 53 6.0 9.0 0.00 0.00 0.00 98 1001.8
20260507091027 39 77 5.0 5.0 0.00 0.00 0.00 98 1002.0
20260507090523 39 38 1.0 4.0 0.00 0.00 0.00 98 1002.1
20260507090020 39 114 2.0 2.0 0.00 0.00 0.00 98 1002.2
20260507085517 40 61 4.0 5.0 0.00 0.00 0.00 98 1002.1
20260507085014 40 74 4.0 4.0 0.00 0.00 0.00 98 1002.1
20260507084510 40 73 4.0 5.0 0.00 0.00 0.00 98 1002.1
20260507084007 40 81 4.0 6.0 0.00 0.00 0.00 98 1002.3
20260507083503 40 72 4.0 5.0 0.00 0.00 0.00 98 1002.3
20260507083000 40 92 3.0 4.0 0.00 0.00 0.00 98 1002.4
20260507082457 40 103 1.0 2.0 0.00 0.00 0.00 98 1002.4
20260507081953 40 86 2.0 3.0 0.00 0.00 0.00 98 1002.4
20260507081449 40 74 2.0 3.0 0.00 0.00 0.00 98 1002.3
20260507080946 40 66 2.0 2.0 0.00 0.00 0.00 98 1002.4
20260507080442 40 53 2.0 3.0 0.00 0.00 0.00 98 1002.2
20260507075937 40 0 0.0 6.0 0.00 0.00 0.00 98 1002.1
20260507075434 40 299 2.0 4.0 0.00 0.00 0.00 98 1002.0
20260507074931 40 39 2.0 2.0 0.00 0.00 0.00 98 1002.1
20260507074427 40 304 0.0 2.0 0.00 0.00 0.00 98 1002.0
20260507073925 40 58 0.0 2.0 0.00 0.00 0.00 98 1002.1
20260507073422 40 53 1.0 2.0 0.00 0.00 0.00 98 1002.1
20260507072919 40 26 0.0 2.0 0.00 0.00 0.00 98 1002.1
20260507072416 41 110 2.0 2.0 0.00 0.00 0.00 98 1002.0
20260507071914 40 104 2.0 3.0 0.00 0.00 0.00 98 1001.9
20260507071410 41 102 0.0 2.0 0.00 0.00 0.00 98 1001.8
20260507070906 41 30 0.0 2.0 0.00 0.00 0.00 98 1002.0
20260507070404 41 327 1.0 3.0 0.00 0.00 0.00 98 1002.0
20260507065901 41 89 1.0 2.0 0.00 0.00 0.00 98 1002.1
20260507065357 41 104 0.0 4.0 0.00 0.00 0.00 98 1002.0
20260507064855 41 113 2.0 3.0 0.00 0.00 0.00 98 1001.9
20260507064353 41 60 2.0 2.0 0.00 0.00 0.00 98 1002.0
20260507063851 41 283 2.0 2.0 0.00 0.00 0.00 98 1002.3
20260507063347 41 282 3.0 3.0 0.00 0.00 0.00 98 1002.0
20260507062844 41 296 1.0 2.0 0.00 0.00 0.00 98 1002.2
20260507062341 41 286 2.0 2.0 0.00 0.00 0.00 98 1002.1
20260507061839 41 355 0.0 2.0 0.00 0.00 0.00 97 1002.1
20260507061337 41 253 0.0 3.0 0.00 0.00 0.00 97 1002.1
20260507060835 41 17 0.0 1.0 0.00 0.00 0.00 97 1002.2
20260507060331 41 60 0.0 2.0 0.00 0.00 0.00 97 1002.2
20260507055828 41 325 0.0 2.0 0.00 0.00 0.00 97 1002.5
20260507055323 41 334 0.0 2.0 0.00 0.00 0.00 97 1002.3
20260507054820 41 287 2.0 2.0 0.00 0.00 0.00 97 1002.6
20260507054316 41 329 1.0 2.0 0.00 0.00 0.00 96 1002.5
20260507053814 41 325 1.0 4.0 0.00 0.00 0.00 96 1002.5
20260507053311 42 267 2.0 4.0 0.00 0.00 0.00 96 1002.6
20260507052810 42 100 0.0 4.0 0.00 0.00 0.00 96 1002.0
20260507052307 42 303 2.0 2.0 0.00 0.00 0.00 96 1002.2
20260507051804 42 317 3.0 3.0 0.00 0.00 0.00 96 1002.5
20260507051301 42 316 2.0 4.0 0.00 0.00 0.00 96 1002.5
20260507050753 42 35 0.0 3.0 0.00 0.00 0.00 96 1002.4
20260507050249 42 269 1.0 5.0 0.00 0.00 0.00 96 1002.5
20260507045746 42 290 2.0 4.0 0.00 0.00 0.00 96 1002.5
20260507045243 42 284 4.0 7.0 0.00 0.00 0.00 97 1002.5
20260507044740 42 267 4.0 7.0 0.00 0.00 0.00 97 1002.6
20260507044236 42 287 7.0 9.0 0.00 0.00 0.00 97 1002.3
20260507043732 42 350 2.0 4.0 0.00 0.00 0.00 97 1002.4
20260507043229 42 44 2.0 3.0 0.00 0.00 0.00 97 1002.6
20260507042725 42 16 0.0 2.0 0.00 0.00 0.00 97 1002.6
20260507042225 42 38 0.0 3.0 0.00 0.00 0.00 97 1002.4
20260507041723 42 38 0.0 2.0 0.00 0.00 0.00 97 1002.4
20260507041220 42 323 2.0 3.0 0.00 0.00 0.00 97 1002.4
20260507040717 42 101 2.0 2.0 0.00 0.00 0.00 97 1002.5
20260507040213 42 256 2.0 4.0 0.00 0.00 0.00 97 1002.5
20260507035709 42 274 2.0 3.0 0.00 0.86 0.86 97 1002.5
20260507035205 42 352 2.0 3.0 0.00 0.86 0.86 97 1002.7
20260507034702 42 339 3.0 6.0 0.00 0.86 0.86 97 1002.7
20260507034159 42 298 2.0 3.0 0.00 0.86 0.86 98 1002.7
20260507033658 42 179 2.0 5.0 0.00 0.86 0.86 97 1002.8
20260507033154 42 273 2.0 2.0 0.00 0.86 0.86 97 1002.9
20260507032652 42 27 0.0 2.0 0.00 0.86 0.86 97 1002.6
20260507032147 42 80 2.0 4.0 0.00 0.86 0.86 97 1002.4
20260507031645 42 88 2.0 3.0 0.00 0.86 0.86 97 1002.4
20260507031141 42 76 2.0 2.0 0.00 0.86 0.86 97 1002.5
20260507030638 43 74 2.0 3.0 0.02 0.86 0.86 97 1002.7
20260507030136 43 283 0.0 2.0 0.02 0.86 0.86 97 1003.1
20260507025633 43 256 1.0 2.0 0.00 0.85 0.85 97 1002.9
20260507025129 43 71 1.0 3.0 0.00 0.85 0.85 97 1002.9
20260507024628 43 336 0.0 2.0 0.00 0.85 0.85 96 1002.8
20260507024125 43 259 0.0 3.0 0.00 0.85 0.85 96 1002.8
20260507023620 43 238 2.0 3.0 0.00 0.85 0.85 96 1003.1
20260507023118 43 276 2.0 3.0 0.02 0.85 0.85 97 1003.1
20260507022614 43 233 1.0 3.0 0.02 0.85 0.85 96 1002.8
20260507022110 43 125 1.0 2.0 0.00 0.85 0.85 96 1002.9
20260507021606 43 45 2.0 2.0 0.02 0.85 0.85 96 1003.0
20260507021102 43 37 2.0 2.0 0.00 0.85 0.85 96 1003.1
20260507020601 43 253 1.0 2.0 0.00 0.85 0.85 96 1003.0
20260507020056 43 281 2.0 8.0 0.02 0.85 0.85 96 1003.3
20260507015555 43 282 2.0 4.0 0.02 0.85 0.85 96 1003.1
20260507015052 43 251 2.0 6.0 0.02 0.84 0.84 96 1002.9
20260507014549 43 293 6.0 7.0 0.05 0.84 0.84 96 1003.1
20260507014044 44 190 2.0 6.0 0.02 0.84 0.84 96 1003.1
20260507013541 43 0 2.0 11.0 0.00 0.83 0.83 97 1003.1
20260507013039 44 260 5.0 8.0 0.00 0.83 0.83 97 1003.1
20260507012536 44 288 3.0 4.0 0.02 0.83 0.83 97 1002.9
20260507012032 44 174 2.0 3.0 0.02 0.83 0.83 97 1002.9
20260507011530 44 38 0.0 1.0 0.00 0.83 0.83 97 1002.8
20260507011025 43 39 0.0 2.0 0.00 0.83 0.83 97 1002.7
20260507010520 43 71 2.0 2.0 0.00 0.83 0.83 97 1002.9
20260507010017 43 41 2.0 3.0 0.02 0.83 0.83 97 1002.5
20260507005514 43 68 3.0 3.0 0.05 0.83 0.83 97 1002.4
20260507005010 44 72 2.0 4.0 0.05 0.83 0.83 97 1002.4
20260507004508 44 73 2.0 3.0 0.02 0.82 0.82 97 1002.6
20260507004005 43 22 0.0 1.0 0.02 0.82 0.82 97 1002.6
20260507003500 43 326 0.0 0.0 0.02 0.82 0.82 97 1002.5
20260507002955 43 117 1.0 2.0 0.00 0.81 0.81 97 1002.2
20260507002452 43 317 3.0 4.0 0.00 0.81 0.81 97 1002.4
20260507001949 43 60 0.0 2.0 0.00 0.81 0.81 97 1002.2
20260507001445 44 18 0.0 4.0 0.02 0.81 0.81 97 1001.8
20260507000943 43 86 2.0 2.0 0.02 0.81 0.81 96 1002.1
20260507000439 43 105 2.0 2.0 0.05 0.81 0.81 96 1002.0
20260506235935 43 41 3.0 5.0 0.09 0.81 0.81 96 1001.7
20260506235433 44 67 3.0 4.0 0.09 0.80 0.80 96 1001.7
20260506234932 44 82 4.0 5.0 0.09 0.80 0.80 96 1001.6
20260506234431 44 104 3.0 3.0 0.02 0.78 0.78 96 1001.8
20260506233928 44 77 2.0 4.0 0.02 0.78 0.78 96 1001.7
20260506233425 44 56 4.0 5.0 0.02 0.78 0.78 96 1001.8
20260506232921 44 92 3.0 4.0 0.00 0.78 0.78 96 1001.9
20260506232418 44 87 3.0 4.0 0.00 0.78 0.78 95 1001.8
20260506231913 44 94 2.0 3.0 0.00 0.78 0.78 95 1001.4
20260506231411 44 91 2.0 7.0 0.00 0.78 0.78 95 1001.6
20260506230908 44 64 6.0 6.0 0.00 0.78 0.78 95 1001.5
20260506230405 44 327 3.0 5.0 0.00 0.78 0.78 95 1001.6
20260506225901 44 348 5.0 5.0 0.00 0.78 0.78 95 1001.5
20260506225359 44 329 5.0 6.0 0.00 0.78 0.78 95 1001.3
20260506224855 44 67 6.0 6.0 0.00 0.78 0.78 94 1001.5
20260506224353 44 81 4.0 4.0 0.00 0.78 0.78 94 1001.4
20260506223849 44 15 2.0 5.0 0.00 0.78 0.78 94 1001.2
20260506223344 44 348 3.0 5.0 0.00 0.78 0.78 94 1001.3
20260506222842 44 221 3.0 4.0 0.00 0.78 0.78 94 1001.1
20260506222337 44 253 3.0 5.0 0.00 0.78 0.78 95 1001.1
20260506221835 44 252 2.0 6.0 0.00 0.78 0.78 95 1001.0
20260506221332 44 347 5.0 9.0 0.00 0.78 0.78 95 1000.9
20260506220830 44 335 2.0 6.0 0.00 0.78 0.78 95 1001.0
20260506220325 45 97 2.0 7.0 0.00 0.78 0.78 95 1000.7
20260506215822 45 66 0.0 3.0 0.00 0.78 0.78 95 1001.0
20260506215318 45 299 5.0 13.0 0.00 0.78 0.78 95 1000.7
20260506214814 45 9 1.0 11.0 0.00 0.78 0.78 95 1000.8
20260506214311 45 357 4.0 9.0 0.00 0.78 0.78 96 1000.9
20260506213809 45 260 2.0 2.0 0.00 0.78 0.78 96 1000.9
20260506213306 45 39 3.0 4.0 0.00 0.78 0.78 96 1000.8
20260506212803 45 331 2.0 5.0 0.00 0.78 0.78 96 1000.8
20260506212259 45 10 3.0 4.0 0.02 0.78 0.78 96 1000.8
20260506211754 45 314 3.0 4.0 0.02 0.78 0.78 96 1000.7
20260506211251 45 3 2.0 5.0 0.00 0.77 0.77 96 1000.7
20260506210748 45 330 8.0 8.0 0.02 0.77 0.77 96 1000.7
20260506210244 45 317 1.0 7.0 0.07 0.77 0.77 96 1000.7
20260506205742 45 303 2.0 6.0 0.05 0.76 0.76 96 1000.6
20260506205237 45 295 2.0 5.0 0.19 0.76 0.76 95 1000.6
20260506204734 45 338 1.0 7.0 0.17 0.75 0.75 95 1000.6
20260506204232 45 338 4.0 10.0 0.05 0.73 0.73 95 1000.8
20260506203731 45 12 2.0 12.0 0.05 0.72 0.72 95 1000.7
20260506203227 45 334 6.0 10.0 0.05 0.72 0.72 95 1000.6
20260506202725 45 329 6.0 11.0 0.05 0.72 0.72 95 1000.5
20260506202221 45 187 2.0 8.0 0.02 0.71 0.71 95 1000.2
20260506201718 45 358 5.0 12.0 0.02 0.71 0.71 95 1000.4
20260506201215 46 6 3.0 8.0 0.02 0.71 0.71 95 1000.6
20260506200711 46 27 8.0 12.0 0.00 0.70 0.70 95 1000.5
20260506200208 46 2 3.0 7.0 0.00 0.70 0.70 95 1000.5
20260506195704 46 303 7.0 7.0 0.00 0.70 0.70 95 1000.5
20260506195201 46 46 5.0 6.0 0.05 0.70 0.70 95 1000.7
20260506194658 46 54 4.0 7.0 0.05 0.70 0.70 95 1000.6
20260506194154 46 334 3.0 7.0 0.02 0.70 0.70 95 1000.4
20260506193652 46 320 4.0 8.0 0.00 0.69 0.69 95 1000.6
20260506193149 47 279 5.0 5.0 0.00 0.69 0.69 95 1000.4
20260506192646 47 341 4.0 11.0 0.00 0.69 0.69 94 1000.6
20260506192142 47 70 2.0 6.0 0.00 0.69 0.69 94 1000.5
20260506191639 47 337 1.0 3.0 0.00 0.69 0.69 95 1000.5
20260506191135 47 40 6.0 7.0 0.00 0.69 0.69 94 1000.6
20260506190632 47 349 3.0 9.0 0.00 0.69 0.69 95 1000.6
20260506190129 47 305 4.0 8.0 0.00 0.69 0.69 95 1000.6
20260506185626 46 293 4.0 9.0 0.00 0.69 0.69 95 1000.5
20260506185122 46 104 2.0 9.0 0.00 0.69 0.69 96 1000.6
20260506184620 46 350 4.0 15.0 0.00 0.69 0.69 95 1000.7
20260506184117 46 321 2.0 11.0 0.02 0.69 0.69 96 1000.7
20260506183614 47 23 5.0 7.0 0.02 0.69 0.69 97 1000.6
20260506183109 46 232 1.0 6.0 0.05 0.69 0.69 97 1000.9
20260506182607 46 79 3.0 7.0 0.07 0.69 0.69 97 1000.9
20260506182104 46 288 6.0 11.0 0.07 0.68 0.68 96 1001.0
20260506181602 46 215 1.0 5.0 0.07 0.67 0.67 96 1001.3
20260506181059 46 115 4.0 6.0 0.09 0.67 0.67 96 1001.0
20260506180555 46 316 3.0 4.0 0.07 0.66 0.66 96 1001.0
20260506180052 47 267 6.0 6.0 0.07 0.65 0.65 96 1000.9
20260506175548 47 88 3.0 8.0 0.05 0.65 0.65 96 1001.2
20260506175045 47 313 4.0 6.0 0.07 0.64 0.64 96 1001.2
20260506174544 47 286 4.0 10.0 0.07 0.64 0.64 96 1001.2
20260506174039 47 352 2.0 13.0 0.09 0.63 0.63 96 1001.1
20260506173537 47 0 4.0 12.0 0.12 0.63 0.63 95 1001.5
20260506173034 48 308 10.0 13.0 0.17 0.61 0.61 95 1001.2
20260506172531 48 343 6.0 10.0 0.19 0.61 0.61 95 1001.3
20260506172027 50 330 10.0 13.0 0.14 0.59 0.59 93 1001.3
20260506171525 51 151 2.0 4.0 0.07 0.57 0.57 94 1001.1
20260506171022 54 311 12.0 12.0 0.05 0.56 0.56 91 1000.9
20260506170520 56 53 3.0 4.0 0.09 0.56 0.56 96 1001.2
20260506170017 56 36 6.0 6.0 0.21 0.55 0.55 96 1001.0
20260506165515 56 40 2.0 4.0 0.33 0.54 0.54 96 1001.0
20260506165011 56 155 2.0 5.0 0.33 0.52 0.52 95 1001.0
20260506164508 56 103 1.0 4.0 0.14 0.48 0.48 96 1000.9
20260506164006 56 28 2.0 6.0 0.09 0.47 0.47 96 1001.0
20260506163501 56 28 2.0 5.0 0.09 0.46 0.46 96 1000.8
20260506162956 56 126 6.0 9.0 0.09 0.45 0.45 95 1000.9
20260506162454 56 131 8.0 8.0 0.09 0.44 0.44 95 1001.1
20260506161945 56 57 4.0 7.0 0.07 0.43 0.43 96 1001.1
20260506161443 56 120 8.0 10.0 0.07 0.42 0.42 95 1001.2
20260506160935 56 138 9.0 11.0 0.02 0.42 0.42 96 1001.4
20260506160432 56 59 10.0 13.0 0.02 0.41 0.41 96 1001.3
20260506155929 56 89 4.0 7.0 0.05 0.41 0.41 96 1001.4
20260506155426 55 115 8.0 16.0 0.05 0.41 0.41 96 1001.5
20260506153548 55 61 5.0 6.0 0.07 0.39 0.39 97 1001.8
20260506153046 55 107 3.0 8.0 0.05 0.38 0.38 97 1001.8
20260506152543 55 109 1.0 9.0 0.07 0.38 0.38 97 1002.0
20260506152041 55 56 6.0 9.0 0.07 0.37 0.37 98 1001.7
20260506151539 55 72 4.0 6.0 0.07 0.37 0.37 98 1001.9
20260506151035 55 116 7.0 14.0 0.05 0.36 0.36 98 1001.8
20260506150532 55 151 9.0 10.0 0.07 0.35 0.35 98 1002.1
20260506150029 54 7 0.0 11.0 0.05 0.35 0.35 99 1002.3
20260506145525 54 96 2.0 4.0 0.05 0.34 0.34 99 1002.3
20260506145023 53 65 2.0 5.0 0.05 0.34 0.34 99 1002.2
20260506144519 53 61 7.0 7.0 0.05 0.34 0.34 99 1002.2
20260506144017 52 345 0.0 5.0 0.07 0.33 0.33 98 1002.3
20260506143514 52 63 6.0 13.0 0.07 0.32 0.32 98 1001.9
20260506143013 52 44 4.0 7.0 0.07 0.32 0.32 98 1002.0
20260506142510 52 50 6.0 7.0 0.05 0.31 0.31 98 1002.3
20260506142008 52 66 7.0 8.0 0.05 0.31 0.31 98 1002.4
20260506141506 52 64 5.0 6.0 0.07 0.30 0.30 98 1002.6
20260506141004 52 71 4.0 6.0 0.05 0.29 0.29 98 1002.4
20260506140501 52 351 2.0 2.0 0.07 0.29 0.29 98 1002.7
20260506135957 52 52 5.0 5.0 0.05 0.28 0.28 98 1002.8
20260506135455 51 83 3.0 5.0 0.05 0.28 0.28 98 1002.6
20260506134951 52 75 4.0 6.0 0.05 0.28 0.28 98 1002.6
20260506134447 52 73 4.0 5.0 0.05 0.27 0.27 98 1002.8
20260506133944 52 72 2.0 2.0 0.05 0.27 0.27 98 1002.8
20260506133441 51 56 1.0 4.0 0.05 0.26 0.26 98 1002.9
20260506132938 51 69 4.0 5.0 0.07 0.26 0.26 98 1002.6
20260506132435 51 58 3.0 4.0 0.05 0.25 0.25 98 1002.4
20260506131932 51 64 4.0 4.0 0.07 0.25 0.25 98 1002.5
20260506131428 51 68 3.0 4.0 0.05 0.24 0.24 98 1002.6
20260506130925 52 69 5.0 6.0 0.07 0.24 0.24 98 1002.8
20260506130422 52 61 6.0 6.0 0.07 0.23 0.23 98 1002.8
20260506125920 52 70 4.0 6.0 0.05 0.22 0.22 98 1002.9
20260506125418 52 73 4.0 5.0 0.05 0.22 0.22 98 1003.2
20260506124916 52 57 2.0 2.0 0.07 0.22 0.22 98 1003.3
20260506124413 52 69 4.0 5.0 0.07 0.21 0.21 98 1003.0
20260506123911 52 55 0.0 1.0 0.02 0.20 0.20 98 1002.9
20260506123409 52 75 3.0 5.0 0.02 0.20 0.20 98 1003.0
20260506122906 52 263 0.0 2.0 0.02 0.20 0.20 98 1003.2
20260506122402 52 48 1.0 3.0 0.02 0.20 0.20 98 1003.1
20260506121901 52 274 2.0 2.0 0.07 0.20 0.20 98 1003.3
20260506121357 51 56 6.0 6.0 0.02 0.19 0.19 98 1002.9
20260506120854 52 283 2.0 3.0 0.00 0.18 0.18 98 1003.2